When you browse on this site, cookies collect data to enhance your experience and personalize the content and advertising you see.
Visit our Privacy Policy to learn more. By continuing to use the site, you agree to this use of cookies and data.
  • Em Portugal
  • Lista de países
  • Para 7 dias
  • Temperatura da água
  • Mapas de satélite
  • Mapa do tempo
  • Widgets de tempo
  • user-avatar
    Iniciar Sessão

    Previsão horária em Chernomorec

    Hoje, 11 Dezembro, Terça-feira

    Tempo Temperatura Precipitação Vento Pressão Humidade
    00:00 +3°C° 0.4 mm 6 m/s 754 mmHg 83%
    01:00 +3°C° 0.4 mm 7 m/s 754 mmHg 83%
    02:00 +3°C° 0 mm 7 m/s 754 mmHg 82%
    03:00 +3°C° 0.3 mm 7 m/s 754 mmHg 82%
    04:00 +3°C° 0.3 mm 7 m/s 755 mmHg 82%
    05:00 +3°C° 0.3 mm 7 m/s 755 mmHg 82%
    06:00 +2°C° 0.1 mm 7 m/s 756 mmHg 82%
    07:00 +2°C° 0.1 mm 7 m/s 756 mmHg 82%
    08:00 +2°C° 0.1 mm 6 m/s 757 mmHg 82%
    09:00 +3°C° 0 mm 6 m/s 757 mmHg 78%
    10:00 +3°C° 0 mm 7 m/s 758 mmHg 75%
    11:00 +4°C° 0 mm 7 m/s 758 mmHg 71%
    12:00 +4°C° 0 mm 6 m/s 758 mmHg 69%
    13:00 +5°C° 0 mm 6 m/s 758 mmHg 67%
    14:00 +6°C° 0 mm 5 m/s 759 mmHg 66%
    15:00 +5°C° 0 mm 5 m/s 759 mmHg 69%
    16:00 +3°C° 0 mm 5 m/s 759 mmHg 72%
    17:00 +4°C° 0 mm 4 m/s 760 mmHg 75%
    18:00 +3°C° 0 mm 4 m/s 760 mmHg 75%
    19:00 +3°C° 0 mm 4 m/s 760 mmHg 76%
    20:00 +1°C° 0 mm 4 m/s 760 mmHg 76%
    21:00 +1°C° 0 mm 5 m/s 760 mmHg 75%
    22:00 +1°C° 0 mm 5 m/s 760 mmHg 75%
    23:00 0°C° 0 mm 5 m/s 761 mmHg 74%

    Amanhã, 12 Dezembro, Quarta-feira

    Tempo Temperatura Precipitação Vento Pressão Humidade
    00:00 0°C° 0 mm 5 m/s 761 mmHg 75%
    01:00 0°C° 0 mm 5 m/s 761 mmHg 75%
    02:00 0°C° 0 mm 5 m/s 761 mmHg 76%
    03:00 -1°C° 0 mm 4 m/s 761 mmHg 77%
    04:00 -1°C° 0 mm 4 m/s 761 mmHg 78%
    05:00 -1°C° 0 mm 4 m/s 761 mmHg 78%
    06:00 -1°C° 0 mm 4 m/s 761 mmHg 79%
    07:00 -1°C° 0 mm 4 m/s 761 mmHg 79%
    08:00 -1°C° 0 mm 4 m/s 762 mmHg 79%
    09:00 0°C° 0 mm 4 m/s 762 mmHg 75%
    10:00 +1°C° 0 mm 4 m/s 762 mmHg 71%
    11:00 +3°C° 0 mm 5 m/s 762 mmHg 67%
    12:00 +3°C° 0 mm 5 m/s 762 mmHg 66%
    13:00 +3°C° 0 mm 5 m/s 763 mmHg 66%
    14:00 +3°C° 0 mm 5 m/s 763 mmHg 66%
    15:00 +3°C° 0 mm 4 m/s 763 mmHg 70%
    16:00 +3°C° 0 mm 4 m/s 763 mmHg 74%
    17:00 +2°C° 0 mm 3 m/s 763 mmHg 78%
    18:00 +1°C° 0 mm 3 m/s 764 mmHg 79%
    19:00 +1°C° 0 mm 3 m/s 764 mmHg 79%
    20:00 +1°C° 0 mm 3 m/s 764 mmHg 80%
    21:00 0°C° 0 mm 4 m/s 764 mmHg 79%
    22:00 0°C° 0 mm 4 m/s 764 mmHg 78%
    23:00 0°C° 0 mm 4 m/s 765 mmHg 77%

    Depois de amanhã, 13 Dezembro, Quinta-feira

    Tempo Temperatura Precipitação Vento Pressão Humidade
    00:00 0°C° 0 mm 4 m/s 765 mmHg 76%
    01:00 0°C° 0 mm 4 m/s 765 mmHg 75%
    02:00 -1°C° 0 mm 4 m/s 765 mmHg 74%
    03:00 -1°C° 0 mm 4 m/s 765 mmHg 74%
    04:00 -1°C° 0 mm 4 m/s 765 mmHg 74%
    05:00 -1°C° 0 mm 4 m/s 764 mmHg 74%
    06:00 -1°C° 0 mm 4 m/s 765 mmHg 75%
    07:00 -1°C° 0 mm 4 m/s 765 mmHg 75%
    08:00 -1°C° 0 mm 4 m/s 765 mmHg 76%
    09:00 +1°C° 0 mm 4 m/s 765 mmHg 69%
    10:00 +3°C° 0 mm 4 m/s 765 mmHg 63%
    11:00 +5°C° 0 mm 4 m/s 765 mmHg 57%
    12:00 +5°C° 0 mm 4 m/s 765 mmHg 56%
    13:00 +6°C° 0 mm 4 m/s 764 mmHg 55%
    14:00 +6°C° 0 mm 4 m/s 764 mmHg 54%
    15:00 +5°C° 0 mm 4 m/s 764 mmHg 60%
    16:00 +4°C° 0 mm 3 m/s 764 mmHg 65%
    17:00 +3°C° 0 mm 3 m/s 764 mmHg 70%
    18:00 +4°C° 0 mm 2 m/s 764 mmHg 71%
    19:00 +4°C° 0 mm 2 m/s 764 mmHg 72%
    20:00 +4°C° 0 mm 1 m/s 764 mmHg 72%
    21:00 +4°C° 0 mm 1 m/s 764 mmHg 72%
    22:00 +4°C° 0 mm 1 m/s 764 mmHg 73%
    23:00 +4°C° 0 mm 1 m/s 764 mmHg 73%

    14 Dezembro, Sexta-feira

    Tempo Temperatura Precipitação Vento Pressão Humidade
    00:00 +4°C° 0.1 mm 1 m/s 764 mmHg 73%
    01:00 +4°C° 0.1 mm 1 m/s 764 mmHg 74%
    02:00 +4°C° 0.1 mm 1 m/s 764 mmHg 74%
    03:00 +4°C° 0.1 mm 1 m/s 764 mmHg 75%
    04:00 +4°C° 0.1 mm 1 m/s 764 mmHg 76%
    05:00 +4°C° 0.1 mm 1 m/s 764 mmHg 76%
    06:00 +4°C° 0 mm 1 m/s 764 mmHg 77%
    07:00 +3°C° 0 mm 1 m/s 765 mmHg 78%
    08:00 +3°C° 0 mm 1 m/s 765 mmHg 78%
    09:00 +5°C° 0 mm 1 m/s 765 mmHg 74%
    10:00 +6°C° 0 mm 1 m/s 766 mmHg 71%
    11:00 +7°C° 0 mm 1 m/s 766 mmHg 67%
    12:00 +8°C° 0 mm 1 m/s 766 mmHg 67%
    13:00 +7°C° 0 mm 2 m/s 766 mmHg 67%
    14:00 +8°C° 0 mm 2 m/s 765 mmHg 67%
    15:00 +7°C° 0 mm 2 m/s 766 mmHg 72%
    16:00 +6°C° 0 mm 2 m/s 766 mmHg 77%
    17:00 +4°C° 0 mm 3 m/s 766 mmHg 82%
    18:00 +4°C° 0 mm 3 m/s 766 mmHg 83%
    19:00 +4°C° 0 mm 3 m/s 766 mmHg 84%
    20:00 +4°C° 0 mm 3 m/s 766 mmHg 85%
    21:00 +4°C° 0 mm 3 m/s 766 mmHg 86%
    22:00 +4°C° 0 mm 3 m/s 766 mmHg 87%
    23:00 +4°C° 0 mm 3 m/s 767 mmHg 87%

    15 Dezembro, Sábado

    Tempo Temperatura Precipitação Vento Pressão Humidade
    00:00 +4°C° 0 mm 4 m/s 766 mmHg 87%
    01:00 +4°C° 0 mm 4 m/s 766 mmHg 87%
    02:00 +4°C° 0 mm 4 m/s 766 mmHg 87%
    03:00 +5°C° 0 mm 4 m/s 766 mmHg 88%
    04:00 +5°C° 0 mm 5 m/s 766 mmHg 89%
    05:00 +5°C° 0 mm 5 m/s 765 mmHg 89%
    06:00 +5°C° 0.2 mm 5 m/s 765 mmHg 90%
    07:00 +5°C° 0.2 mm 6 m/s 765 mmHg 91%
    08:00 +5°C° 0.2 mm 6 m/s 765 mmHg 91%
    09:00 +5°C° 0.2 mm 6 m/s 765 mmHg 91%
    10:00 +6°C° 0.2 mm 7 m/s 765 mmHg 90%
    11:00 +6°C° 0.2 mm 7 m/s 765 mmHg 89%
    12:00 +6°C° 1 mm 7 m/s 765 mmHg 90%
    13:00 +7°C° 1 mm 6 m/s 764 mmHg 91%
    14:00 +7°C° 1 mm 6 m/s 764 mmHg 92%
    15:00 +7°C° 1 mm 6 m/s 764 mmHg 94%
    16:00 +7°C° 1 mm 6 m/s 764 mmHg 95%
    17:00 +7°C° 1 mm 5 m/s 763 mmHg 96%
    18:00 +7°C° 0.2 mm 5 m/s 763 mmHg 96%
    19:00 +7°C° 0.2 mm 5 m/s 763 mmHg 96%
    20:00 +7°C° 0.2 mm 4 m/s 763 mmHg 96%
    21:00 +7°C° 0.1 mm 4 m/s 763 mmHg 96%
    22:00 +7°C° 0.1 mm 4 m/s 763 mmHg 96%
    23:00 +8°C° 0.1 mm 4 m/s 763 mmHg 96%

    16 Dezembro, Domingo

    Tempo Temperatura Precipitação Vento Pressão Humidade
    00:00 +8°C° 0.1 mm 4 m/s 763 mmHg 96%
    01:00 +8°C° 0.1 mm 4 m/s 762 mmHg 96%
    02:00 +8°C° 0.1 mm 4 m/s 762 mmHg 96%
    03:00 +8°C° 0.2 mm 4 m/s 762 mmHg 97%
    04:00 +8°C° 0.2 mm 4 m/s 762 mmHg 97%
    05:00 +8°C° 0.2 mm 4 m/s 762 mmHg 97%
    06:00 +8°C° 0.4 mm 4 m/s 762 mmHg 97%
    07:00 +8°C° 0.4 mm 4 m/s 762 mmHg 97%
    08:00 +8°C° 0.4 mm 4 m/s 762 mmHg 97%
    09:00 +8°C° 0.3 mm 4 m/s 762 mmHg 97%
    10:00 +10°C° 0.3 mm 4 m/s 762 mmHg 97%
    11:00 +10°C° 0.3 mm 4 m/s 763 mmHg 96%
    12:00 +10°C° 0.4 mm 4 m/s 763 mmHg 96%
    13:00 +10°C° 0.4 mm 4 m/s 763 mmHg 95%
    14:00 +10°C° 0.4 mm 4 m/s 762 mmHg 95%
    15:00 +9°C° 0.2 mm 5 m/s 763 mmHg 94%
    16:00 +9°C° 0.2 mm 5 m/s 763 mmHg 94%
    17:00 +8°C° 0.2 mm 6 m/s 764 mmHg 94%
    18:00 +8°C° 0.1 mm 6 m/s 764 mmHg 93%
    19:00 +8°C° 0.1 mm 6 m/s 765 mmHg 93%
    20:00 +8°C° 0.1 mm 6 m/s 765 mmHg 92%
    21:00 +7°C° 0.1 mm 6 m/s 765 mmHg 91%
    22:00 +7°C° 0.1 mm 6 m/s 765 mmHg 91%
    23:00 +5°C° 0.1 mm 7 m/s 766 mmHg 90%
    Mostrar mais